This demonstration page uses our WeatherBlox Daily Observations layout. Learn more.

Left ArrowRight Arrow

Hourly Observations for May 2, 2020

Temp ( °F °C ) Dew Point ( °F °C ) Humidity (%) Winds ( mph kmh ) Pressure ( in mb ) Visibility ( mi km ) Precip ( " mm )
12:15 am 00:15 Clear 67 19.3 46 7.5 47 47 NE 16 26 29.85 1011 10 16.0934 0 0
12:35 am 00:35 Clear 67 19.3 46 7.5 47 47 NE 14 22 29.85 1011 10 16.0934 0 0
12:55 am 00:55 Clear 66 19.1 46 7.6 47 47 N 14 22 29.87 1012 10 16.0934 0 0
1:15 am 01:15 Clear 65 18.5 46 7.7 50 50 NNE 15 24 29.88 1012 10 16.0934 0 0
1:35 am 01:35 Clear 66 18.7 46 7.8 49 49 NE 15 24 29.89 1012 10 16.0934 0 0
1:55 am 01:55 Clear 65 18.5 46 7.8 50 50 ENE 14 22 29.9 1013 10 16.0934 0 0
2:15 am 02:15 Clear 65 18.3 46 7.7 50 50 NNE 14 22 29.91 1013 10 16.0934 0 0
2:35 am 02:35 Clear 64 17.8 46 8 53 53 NNE 13 20 29.92 1013 10 16.0934 0 0
2:55 am 02:55 Clear 63 17.4 46 8 54 54 NNE 14 22 29.91 1013 10 16.0934 0 0
3:15 am 03:15 Clear 63 17.4 46 8 54 54 NNE 13 20 29.91 1013 10 16.0934 0 0
3:35 am 03:35 Clear 63 17.2 46 8 55 55 NNE 13 20 29.91 1013 10 16.0934 0 0
3:55 am 03:55 Clear 62 16.9 46 8 56 56 NNE 13 20 29.92 1013 10 16.0934 0 0
4:15 am 04:15 Partly Cloudy 62 16.7 46 7.8 56 56 NNE 14 22 29.92 1013 10 16.0934 0 0
4:35 am 04:35 Clear 62 16.5 45 7.4 55 55 NNE 15 24 29.93 1013 10 16.0934 0 0
4:55 am 04:55 Partly Cloudy 61 16.3 45 7.4 56 56 NNE 16 26 29.94 1014 10 16.0934 0 0
5:15 am 05:15 Mostly Cloudy with Nearby Thunderstorms 61 16.3 46 7.6 57 57 NNE 20 31 29.94 1014 10 16.0934 0 0
5:35 am 05:35 Mostly Cloudy 61 15.9 46 7.7 58 58 N 18 30 29.97 1015 10 16.0934 0 0
5:55 am 05:55 Mostly Cloudy 58 14.7 48 8.9 68 68 N 17 28 30 1016 10 16.0934 0 0
6:15 am 06:15 Cloudy 58 14.5 48 8.9 69 69 NNE 21 33 30.01 1016 10 16.0934 0 0
6:35 am 06:35 Partly Cloudy 57 13.8 48 9.1 73 73 NNE 21 33 30.01 1016 10 16.0934 0 0
6:55 am 06:55 Sunny 56 13.2 49 9.5 78 78 NNE 16 26 30 1016 10 16.0934 0 0
7:15 am 07:15 Sunny 56 13.2 49 9.6 79 79 NNE 15 24 30.01 1016 10 16.0934 0 0
7:35 am 07:35 Sunny 56 13.5 50 10 80 80 NNE 17 28 30.02 1017 10 16.0934 0 0
7:55 am 07:55 Sunny 57 14 50 10 77 77 NE 18 30 30.01 1016 10 16.0934 0 0
8:15 am 08:15 Sunny 57 14 50 10 77 77 NE 17 28 30.01 1016 10 16.0934 0 0
8:35 am 08:35 Sunny 57 14 50 10 77 77 NE 20 31 30.02 1017 10 16.0934 0 0
8:55 am 08:55 Sunny 58 14.5 50 10 75 75 NE 21 33 30.02 1017 10 16.0934 0 0
9:15 am 09:15 Sunny 58 14.5 49 9.7 73 73 NNE 20 31 30.04 1017 10 16.0934 0 0
9:35 am 09:35 Sunny 58 14.7 50 9.9 73 73 NNE 20 31 30.04 1017 10 16.0934 0 0
9:55 am 09:55 Sunny 60 15.7 50 10.1 70 70 NNE 21 33 30.04 1017 10 16.0934 0 0
10:15 am 10:15 Partly Cloudy 61 16 48 9.1 64 64 NNE 26 43 30.05 1018 10 16.0934 0 0
10:35 am 10:35 Mostly Cloudy 62 16.7 50 9.8 64 64 NNE 21 33 30.03 1017 10 16.0934 0 0
10:55 am 10:55 Partly Cloudy 63 17.1 48 9 59 59 NE 24 39 30.03 1017 10 16.0934 0 0
11:15 am 11:15 Mostly Cloudy 64 17.5 46 8 54 54 NE 20 31 30.04 1017 10 16.0934 0 0
11:35 am 11:35 Cloudy 64 17.8 46 7.5 51 51 NE 21 33 30.05 1017 10 16.0934 0 0
11:55 am 11:55 Cloudy 64 17.7 46 8 53 53 NE 17 28 30.05 1017 10 16.0934 0 0
12:15 pm 12:15 Cloudy 64 17.7 47 8.1 54 54 NE 16 26 30.04 1017 10 16.0934 0 0
12:35 pm 12:35 Cloudy 65 18.1 47 8.1 52 52 NNE 17 28 30.04 1017 10 16.0934 0 0
12:55 pm 12:55 Cloudy 64 18 46 7.9 52 52 NE 17 28 30.03 1017 10 16.0934 0 0
1:15 pm 13:15 Cloudy 65 18.1 47 8.2 53 53 NNE 15 24 30.03 1017 10 16.0934 0 0
1:35 pm 13:35 Cloudy 64 18 47 8.4 54 54 NNE 15 24 30.03 1017 10 16.0934 0 0
1:55 pm 13:55 Cloudy 64 17.8 47 8.5 55 55 N 15 24 30.03 1017 10 16.0934 0 0
2:15 pm 14:15 Cloudy 64 18 48 8.8 55 55 NNE 17 28 30.02 1017 10 16.0934 0 0
2:35 pm 14:35 Cloudy 64 18 47 8.2 53 53 NNE 17 28 30.01 1016 10 16.0934 0 0
2:55 pm 14:55 Cloudy 65 18.5 46 8 51 51 ENE 17 28 30 1016 10 16.0934 0 0
3:15 pm 15:15 Cloudy 66 18.7 46 7.7 49 49 NE 14 22 30 1016 10 16.0934 0 0
3:35 pm 15:35 Cloudy 67 19.3 47 8.4 49 49 NE 14 22 29.98 1015 10 16.0934 0 0
3:55 pm 15:55 Partly Cloudy 69 20.5 47 8.2 45 45 NNE 17 28 29.96 1015 10 16.0934 0 0
4:15 pm 16:15 Partly Cloudy 68 19.9 46 8 46 46 NE 18 30 29.97 1015 10 16.0934 0 0
4:35 pm 16:35 Mostly Cloudy 67 19.3 45 7.4 46 46 NNE 14 22 29.96 1015 10 16.0934 0 0
4:55 pm 16:55 Partly Cloudy 68 20 44 6.5 42 42 NE 16 26 29.96 1014 10 16.0934 0 0
5:15 pm 17:15 Mostly Cloudy 67 19.5 44 6.6 43 43 NNE 12 19 29.96 1015 10 16.0934 0 0
5:35 pm 17:35 Cloudy 67 19.3 43 6.2 43 43 NE 15 24 29.97 1015 10 16.0934 0 0
5:55 pm 17:55 Cloudy 65 18.6 41 5 41 41 NE 14 22 29.98 1015 10 16.0934 0 0
6:15 pm 18:15 Cloudy 65 18.6 41 5 41 41 NE 13 20 29.98 1015 10 16.0934 0 0
6:35 pm 18:35 Cloudy 66 18.8 42 5.6 42 42 ENE 12 19 29.98 1015 10 16.0934 0 0
6:55 pm 18:55 Cloudy 64 17.8 43 6.1 46 46 NNE 14 22 29.99 1015 10 16.0934 0 0
7:15 pm 19:15 Cloudy 64 17.5 42 5.8 46 46 NNE 12 19 30 1016 10 16.0934 0 0
7:35 pm 19:35 Cloudy 63 17.4 42 5.5 46 46 NNE 9 15 30 1016 10 16.0934 0 0
7:55 pm 19:55 Cloudy 63 17.1 41 4.9 45 45 NE 12 19 30.01 1016 10 16.0934 0 0
8:15 pm 20:15 Cloudy 62 16.7 41 5 46 46 NE 8 13 30.01 1016 10 16.0934 0 0
8:35 pm 20:35 Cloudy 62 16.4 41 4.9 47 47 NE 7 11 30.02 1016 10 16.0934 0 0
8:55 pm 20:55 Cloudy 60 15.8 41 5.1 49 49 NE 6 9 30.03 1017 10 16.0934 0 0
9:15 pm 21:15 Cloudy 60 15.6 40 4.6 48 48 NNE 7 11 30.03 1017 7 11.26538 0 0
9:55 pm 21:55 Cloudy 59 15.2 41 5.2 52 52 NE 5 7 30.05 1018 10 16.0934 0 0
10:15 pm 22:15 Cloudy 59 15.1 41 5.2 52 52 NE 6 9 30.04 1017 10 16.0934 0 0
10:35 pm 22:35 Cloudy 59 14.9 42 5.6 54 54 ENE 5 7 30.05 1018 10 16.0934 0 0
10:55 pm 22:55 Cloudy 58 14.2 42 5.4 56 56 ENE 5 7 30.06 1018 10 16.0934 0 0
11:15 pm 23:15 Cloudy 58 14.3 42 5.6 56 56 Calm 30.06 1018 10 16.0934 0 0
11:35 pm 23:35 Cloudy 57 14 42 5.5 57 57 NNE 3 6 30.06 1018 10 16.0934 0 0
11:55 pm 23:55 Cloudy 57 13.9 43 6.2 60 60 NNW 3 6 30.07 1018 10 16.0934 0 0

Powered by AerisWeather